RH
20 14 19 25 31 33 36 37 40 38 40 43 38 43 33 27 21 12 11 14 15 24 31 25 15 11 13 16 19 22 25 29 34 37 40 39 41 38 41 44 41 42 40
20 19 22 26 27 30 33 35 39 39 44 43 38 40 30 26 20 15 15 15 20 30 23 22 21 17 13 12 14 17 20 24 29 34 43 41 41 39 41 46 41 40 44
26 24 26 27 25 30 31 38 36 40 46 39 37 34 28 19 13 16 20 20 25 31 29 25 22 18 16 15 13 15 17 19 21 27 34 43 45 41 42 46 44 44 44
29 31 28 26 27 29 34 41 36 41 43 37 36 32 24 13 12 20 30 32 30 30 33 30 26 22 17 16 16 15 16 17 19 26 31 34 40 46 46 40 42 45 48
31 35 35 29 30 27 37 37 38 44 38 39 33 27 18 11 12 28 46 47 38 38 39 33 26 21 18 16 17 17 16 15 18 23 29 32 38 46 38 42 45 48 51
39 38 33 32 32 37 36 36 37 44 40 35 31 22 12 12 16 41 56 52 47 45 43 36 28 21 17 17 18 18 18 19 24 24 24 30 32 32 34 39 48 49 56
38 34 31 32 37 37 38 36 41 44 36 34 23 15 12 15 31 51 54 53 47 51 40 29 21 19 14 15 16 19 21 22 29 28 27 23 26 33 39 44 51 52 53
36 36 35 43 41 41 36 37 39 37 34 27 18 14 16 30 45 59 58 52 49 43 33 21 18 17 12 11 13 14 19 26 29 29 28 25 22 24 27 33 38 43 49
38 36 40 43 45 42 45 38 36 31 27 19 16 20 34 43 55 56 49 44 35 27 21 18 17 13 11 10 10 10 12 17 23 28 30 29 28 27 23 22 26 30 34
48 41 45 47 47 46 42 38 31 22 19 19 27 42 53 56 49 45 40 29 24 23 20 19 15 12 10 10 10 11 12 18 21 22 25 21 21 22 24 25 26 25 24
65 50 48 50 50 49 47 40 26 20 21 37 60 58 53 56 46 34 31 25 25 24 21 17 15 13 12 12 12 12 19 25 25 23 22 18 16 15 14 14 15 19 23
73 63 63 53 48 49 47 37 29 31 41 74 71 59 53 51 38 32 29 26 27 23 20 17 15 15 19 19 16 21 24 26 26 23 22 17 15 11 10 10 10 12 15
79 76 62 53 48 49 40 36 39 46 68 75 65 56 52 36 31 31 31 34 35 26 22 20 20 24 25 25 25 26 29 30 29 26 25 20 20 16 15 15 15 14 14
82 79 68 57 52 49 43 40 45 60 74 71 58 56 42 32 33 35 35 36 34 31 24 23 24 25 28 28 28 27 26 27 28 28 23 21 21 20 18 17 16 15 14
82 69 70 70 57 51 44 43 51 63 66 64 59 50 37 38 39 40 39 37 36 31 29 27 29 30 30 29 29 28 28 28 29 29 26 22 21 20 18 16 15 15 15
88 76 65 62 64 52 45 44 56 67 63 65 55 43 40 44 44 42 41 39 36 34 33 33 33 32 31 29 29 29 29 28 28 27 27 21 20 19 19 19 19 19 18
91 82 75 68 65 58 50 50 56 70 66 64 51 43 45 46 46 46 43 42 40 39 40 38 37 34 32 31 31 30 29 28 27 26 29 29 25 25 26 24 23 22 21
86 83 82 71 70 61 57 55 59 68 69 63 52 49 50 47 50 50 49 47 44 44 44 42 40 39 38 38 37 36 33 31 32 32 32 33 31 30 26 25 25 24 23
85 85 89 90 81 68 59 58 67 68 63 63 57 57 57 52 54 53 52 49 45 44 43 42 42 42 40 38 36 38 38 36 35 35 34 33 31 30 29 28 25 23 22
84 89 92 95 86 79 62 61 72 81 71 63 62 66 63 59 58 57 56 51 47 48 44 46 44 43 42 39 37 38 36 34 32 33 33 32 31 29 28 27 26 25 23
85 81 88 92 85 81 62 63 73 80 77 67 64 71 70 66 63 64 59 56 51 51 48 45 44 42 40 39 39 37 34 33 34 34 35 36 35 34 34 32 29 27 25
82 86 81 84 86 82 69 64 76 84 80 78 68 72 76 74 69 68 64 58 54 53 52 48 46 44 42 41 42 40 41 39 38 38 41 41 40 38 37 35 34 31 29
63 84 81 81 80 79 78 74 81 89 89 86 78 78 85 85 76 76 72 63 62 60 56 51 52 51 46 43 40 42 46 48 48 43 45 45 46 46 46 44 42 38 36
53 81 83 85 83 80 80 74 85 86 91 87 88 87 93 95 90 83 78 73 71 65 64 61 60 58 56 56 54 52 47 48 50 54 52 51 51 53 52 49 44 37 34
43 71 89 85 91 83 92 93 89 90 94 98 93 94 99 99 98 91 90 82 80 78 77 76 76 68 62 57 55 51 47 49 53 56 58 60 58 54 53 48 41 38 35
36 53 67 80 88 94 89 90 92 97 94 95 94 99 98 99 99 99 94 89 89 87 87 83 68 64 57 52 52 52 54 57 57 61 59 55 53 53 48 43 40 37 36